Regional Weather Roundup
Issued by NWS Upton, NY

Current Version | Previous Version | Text Only | Print | Product List | Glossary Off
Versions: 1 2 3 4 5 6 7 8 9 10 11 12 13 14 15 16 17 18 19 20 21 22 23 24 25 26 27 28 29 30 31 32 33 34 35 36 37 38 39 40 41 42 43 44 45 46 47 48 49 50
000 ASUS41 KOKX 291204 RWROKX REGIONAL WEATHER ROUNDUP NATIONAL WEATHER SERVICE NEW YORK NY 800 AM EDT MON AUG 29 2016 NOTE: "FAIR" INDICATES FEW OR NO CLOUDS BELOW 12,000 FEET WITH NO SIGNIFICANT WEATHER AND/OR OBSTRUCTIONS TO VISIBILITY. NYZ071-072-176-178-NJZ106-104-291300- NEW YORK CITY METRO AREA CITY SKY/WX TMP DP RH WIND PRES REMARKS Central Park MOSUNNY 75 64 68 VRB5 30.15S LaGuardia APRT PTSUNNY 78 64 61 W8 30.11S Kennedy INTL PTSUNNY 76 68 76 W12 30.13S Newark/Liberty PTSUNNY 76 65 68 VRB5 30.12S Bronx Bot Gard N/A 75 63 64 N1 30.12F Wall St Helipt MOSUNNY 75 66 73 W7 30.13S Teterboro CLOUDY 75 64 68 S3 30.11S $$ NYZ177-179-078>081-291300- LONG ISLAND NEW YORK CITY SKY/WX TMP DP RH WIND PRES REMARKS Farmingdale MOSUNNY 76 67 73 W8 30.12R MacArthur/ISP PTSUNNY 75 66 73 SW7 30.11S Shirley CLOUDY 76 65 68 SW7 30.12S Riverhead NOT AVBL Westhampton MOSUNNY 75 67 76 W8 30.13S Southampton N/A 75 72 88 SW5 30.08S Bridgehampton N/A 72 68 88 CALM 30.10S East Hampton FAIR 74 69 84 SW8 30.10S Montauk N/A 75 70 84 SW7 30.11F $$ NYZ052-065-067-291300- HUDSON VALLEY CITY SKY/WX TMP DP RH WIND PRES REMARKS White Plains CLOUDY 73 65 75 W7 30.12R Newburgh PTSUNNY 72 68 88 W8 30.15R Montgomery CLOUDY 72 67 84 S3 30.13S Poughkeepsie CLOUDY 73 65 75 CALM 30.11S Albany PTSUNNY 73 67 81 NW10 30.13R $$ NJZ001-105-106-008-010-013-015-019>022-104-291300- NEW JERSEY CITY SKY/WX TMP DP RH WIND PRES REMARKS Newark/Liberty PTSUNNY 76 65 68 VRB5 30.12S Teterboro CLOUDY 75 64 68 S3 30.11S Caldwell CLOUDY 73 65 75 CALM 30.14R Morristown PTSUNNY 72 68 88 CALM 30.14R Somerville MOSUNNY 70 66 87 CALM 30.13R Linden FAIR 74 64 70 CALM 30.14S Sussex CLOUDY 70 67 90 CALM 30.15S Abdover N/A 70 65 84 CALM 30.16S Trenton SUNNY 74 64 71 W6 30.14S Millville MOSUNNY 71 70 96 CALM 30.17R Atlantic City SUNNY 72 67 84 NW5 30.16R Wrightstown SUNNY 73 69 87 W6 30.12S Toms River SUNNY 72 68 87 W5 30.15S Belmar SUNNY 73 69 87 W7 30.15S $$ PAZ047>061-062-071-291300- EASTERN PENNSYLVANIA CITY SKY/WX TMP DP RH WIND PRES REMARKS Philadelphia MOSUNNY 75 67 76 W6 30.16R Allentown MOSUNNY 72 65 78 CALM 30.16R Scranton PTSUNNY 74 68 81 NW7 30.20R $$ CTZ002-004>006-009-010-012-RIZ004-006-007-MAZ004-011-015-291300- SOUTHERN NEW ENGLAND IN CT CITY SKY/WX TMP DP RH WIND PRES REMARKS Bradley INTL CLOUDY 72 65 78 SW3 30.11R Hartford CLOUDY 76 67 73 CALM 30.10R Danbury MOSUNNY 72 66 81 SW5 30.14R Wtrbury/Oxford PTSUNNY 72 63 73 W3 30.15S Bridgeport MOSUNNY 77 65 66 W7 30.11R Meriden PTSUNNY 74 66 76 S3 30.11R New Haven PTSUNNY 76 66 71 W5 30.11S Chester FAIR 73 68 83 CALM 30.12R Groton MOSUNNY 77 71 82 SW7 30.09S Wilimantic CLOUDY 70 67 90 CALM 30.11S IN RI CITY SKY/WX TMP DP RH WIND PRES REMARKS Providence PTSUNNY 74 66 76 W7 30.09S Block Island MOSUNNY 74 69 85 SW15 30.10F Westerly SUNNY 75 67 76 SW7 30.10F IN MA CITY SKY/WX TMP DP RH WIND PRES REMARKS Boston CLOUDY 74 65 73 W10G20 30.06R Worcester MOSUNNY 68 63 84 MISG 30.11R Westfield CLOUDY 70 66 87 SE3 30.10S Provincetown MOSUNNY 73 67 81 SW14 30.06F Nantucket SUNNY 71 68 90 SW10 30.10S $$ ANZ330-335-338-340-345-350-353-355-291300- COASTAL MARINE OBSERVATIONS STATION/POSITION TIME SKY/WX TEMP WIND PRES VSBY WAVE AIR SEA DIR/SP/G HT/PER (UTC) (F) (DEG/KT/KT) (MB) (MI) (FT/S) NY HARB ENTRANCE 1050 73 76 260/ 10/ 10 1019.8 3/14 20S FIRE ISLAND 1050 74 75 260/ 8/ 10 1019.8 3/14 GREAT SOUTH BAY 1130 76 79 240/ 12/ 16 N/A 23 SSW MONTAUK P 1050 75 76 250/ 12/ 12 1019.8 3/14 15 E BARNEGAT LI 1100 76 N/A 3/14 HUDSON CANYON 1050 75 78 1019.9 3/14 KINGS POINT 1100 76 76 1019.6 EXECUTION ROCKS 1100 76 250/ 10/ 12 N/A CENTRAL LI SOUND NOT AVBL EASTERN LI SOUND 1100 73 71 230/ 6/ 8 N/A ROBBINS REEF 1100 74 260/ 10/ 12 1019.3 $$ >>>>>>>>>>>>>>>>>>>>>>>>>>>> KEY <<<<<<<<<<<<<<<<<<<<<<<<<<< > < > SKY/WX - Sky Condition/Present Weather < > TMP - Temperature in Fahrenheit < > DP - Dew Point in Fahrenheit < > RH - Relative Humidity in Percent < > WIND - Direction (from) and Speed in MPH < > PRES - Mean Sea Level Pressure (inches of Hg) < > WCI - Wind Chill Index < > VSB - VISIBILITY IN MILES < > HX - HEAT INDEX < > TC - TEMPERATURE IN CELSIUS < > VRB - VARIABLE WIND DIRECTION < > < >>>>>>>>>>>>>>>>>>>>>>>>>>>> KEY <<<<<<<<<<<<<<<<<<<<<<<<<<<

USA.gov is the U.S. government's official web portal to all federal, state and local government web resources and services.